Total_Precipitation_Accumulation
0.00 0.00 0.00 0.00 0.00 0.00 0.00 0.00 0.00 0.00 0.00 0.00 0.00 0.00 0.00 0.00 0.00 0.00 -0.00 -0.00 -0.00 -0.00 -0.00 -0.01 -0.00 -0.00 -0.00 -0.04 -0.00 -0.00 -0.02 -0.08 -0.12 -0.12 -0.18 -0.25 -0.25 -0.29 -0.45 -0.53 -0.53 -0.68 -0.93 -0.90 -0.81 -0.81 -0.77 -0.64 -0.46 -0.46 -0.12 -0.00 0.02 0.02 0.03 0.05 0.05 0.05 0.20 0.23 0.23 0.19 0.15 0.13 0.03 0.03 0.19 0.34 0.40 0.40 0.30 0.46 0.08 0.08 0.06 -0.01 -0.01 -0.01 -0.00 0.00 0.00 0.00 0.00 -0.01 -0.00 -0.00 -0.02 -0.00 0.00 0.00 0.00 0.00 0.02 0.02 0.05 0.00 0.00 0.01 0.01 0.02 0.02 0.04 0.00
0.00 0.00 0.00 0.00 0.00 0.00 0.00 0.00 0.00 0.00 0.00 0.00 0.00 0.00 0.00 0.00 0.00 0.00 0.00 -0.00 -0.00 -0.00 -0.00 -0.01 -0.01 -0.01 -0.00 -0.02 -0.00 -0.00 -0.04 -0.09 -0.11 -0.11 -0.20 -0.26 -0.26 -0.32 -0.32 -0.54 -0.54 -0.64 -0.75 -0.53 -0.77 -0.77 -0.78 -0.60 -0.48 -0.48 -0.17 -0.02 0.02 0.02 0.02 0.03 0.03 0.05 0.09 0.27 0.27 0.28 0.14 0.16 0.11 0.11 0.23 0.32 0.48 0.48 0.46 0.52 0.29 0.29 0.09 0.04 0.04 -0.01 -0.00 0.00 0.00 0.00 0.00 -0.01 -0.00 -0.00 -0.01 0.00 0.00 0.00 0.00 0.04 0.03 0.03 0.06 0.02 0.02 0.02 0.02 0.03 0.03 0.04 0.03
0.00 0.00 0.00 0.00 0.00 0.00 0.00 0.00 0.00 0.00 0.00 0.00 0.00 0.00 0.00 0.00 0.00 0.00 0.00 -0.00 -0.00 -0.00 -0.00 -0.01 -0.01 -0.01 -0.01 -0.01 -0.00 -0.00 -0.00 -0.09 -0.13 -0.13 -0.22 -0.29 -0.29 -0.44 -0.43 -0.68 -0.68 -0.63 -0.54 -0.49 -0.72 -0.72 -0.73 -0.77 -0.49 -0.49 -0.39 -0.06 0.03 0.03 0.03 0.03 0.03 0.05 0.07 0.28 0.28 0.26 0.30 0.31 0.28 0.28 0.24 0.26 0.50 0.50 0.50 0.55 0.35 0.35 0.25 0.08 0.08 0.03 -0.00 0.00 0.00 0.00 0.00 0.00 -0.00 -0.00 -0.01 0.00 0.00 0.00 0.00 0.05 0.00 0.00 0.05 0.00 0.00 0.01 0.02 0.01 0.01 0.04 0.02
0.00 0.00 0.00 0.00 0.00 0.00 0.00 0.00 0.00 0.00 0.00 0.00 0.00 0.00 0.00 0.00 0.00 0.00 0.00 0.00 0.00 -0.00 -0.00 -0.01 -0.01 -0.01 -0.02 -0.01 -0.04 -0.04 -0.01 -0.09 -0.11 -0.11 -0.24 -0.31 -0.31 -0.44 -0.50 -0.59 -0.59 -0.64 -0.63 -0.60 -0.66 -0.66 -0.77 -0.71 -0.50 -0.50 -0.44 -0.08 0.03 0.03 0.03 0.04 0.04 0.04 0.06 0.07 0.07 0.14 0.22 0.36 0.40 0.40 0.60 0.50 0.46 0.46 0.50 0.61 0.39 0.39 0.28 0.14 0.14 0.07 0.01 0.00 0.00 0.00 0.00 0.00 -0.00 -0.00 -0.01 0.00 0.00 0.00 0.00 0.05 0.00 0.00 0.05 0.01 0.01 0.02 0.01 0.02 0.02 0.05 0.02
0.00 0.00 0.00 0.00 0.00 0.00 0.00 0.00 0.00 0.00 0.00 0.00 0.00 0.00 0.00 0.00 0.00 0.00 0.00 0.00 0.00 -0.00 -0.00 -0.01 -0.01 -0.01 -0.02 -0.04 -0.05 -0.05 -0.03 -0.09 -0.12 -0.12 -0.16 -0.32 -0.32 -0.37 -0.46 -0.52 -0.52 -0.68 -0.62 -0.63 -0.64 -0.64 -0.76 -0.65 -0.50 -0.50 -0.38 -0.24 0.02 0.02 0.04 0.04 0.04 0.05 0.06 0.06 0.06 0.06 0.08 0.16 0.62 0.62 0.71 0.65 0.54 0.54 0.61 0.55 0.50 0.50 0.30 0.23 0.23 0.12 0.04 0.00 0.00 0.00 0.00 0.00 0.00 0.00 -0.01 0.00 0.00 0.00 0.00 0.01 0.00 0.00 0.06 0.01 0.01 0.02 0.02 0.03 0.03 0.05 0.04
0.00 0.00 0.00 0.00 0.00 0.00 0.00 0.00 0.00 0.00 0.00 0.00 0.00 0.00 0.00 0.00 0.00 0.00 0.00 0.00 0.00 -0.00 -0.00 -0.01 -0.01 -0.01 -0.02 -0.03 -0.04 -0.04 -0.03 -0.06 -0.16 -0.16 -0.20 -0.34 -0.34 -0.35 -0.44 -0.45 -0.45 -0.56 -0.71 -0.73 -0.65 -0.65 -0.68 -0.60 -0.48 -0.48 -0.32 -0.24 0.02 0.02 0.04 0.04 0.04 0.05 0.05 0.05 0.05 0.05 0.05 0.05 0.59 0.59 0.56 0.70 0.63 0.63 0.49 0.51 0.46 0.46 0.32 0.22 0.22 0.19 0.07 0.03 0.03 0.00 0.00 0.00 -0.00 -0.00 -0.00 0.00 0.00 0.00 0.00 0.00 0.03 0.03 0.07 0.01 0.01 0.01 0.02 0.01 0.01 0.05 0.03
0.00 0.00 0.00 0.00 0.00 0.00 0.00 0.00 0.00 0.00 0.00 0.00 0.00 0.00 0.00 0.00 0.00 0.00 0.00 0.00 0.00 -0.00 -0.00 -0.00 -0.01 -0.01 -0.01 -0.03 -0.05 -0.05 -0.04 -0.08 -0.17 -0.17 -0.20 -0.32 -0.32 -0.32 -0.38 -0.43 -0.43 -0.45 -0.77 -0.72 -0.66 -0.66 -0.66 -0.58 -0.45 -0.45 -0.28 -0.17 -0.06 -0.06 0.03 0.03 0.03 0.04 0.05 0.05 0.05 0.04 0.04 0.06 0.15 0.15 0.39 0.51 0.69 0.69 0.58 0.57 0.47 0.47 0.45 0.26 0.26 0.22 0.09 0.04 0.04 0.00 0.00 0.00 0.00 0.00 -0.00 0.00 0.00 0.00 0.00 0.00 0.01 0.01 0.03 0.02 0.02 0.01 0.01 0.01 0.01 0.03 0.02
0.00 0.00 0.00 0.00 0.00 0.00 0.00 0.00 0.00 0.00 0.00 0.00 0.00 0.00 0.00 0.00 0.00 0.00 0.00 0.00 0.00 0.00 -0.00 -0.00 -0.01 -0.01 -0.01 -0.06 -0.07 -0.07 -0.06 -0.10 -0.16 -0.16 -0.18 -0.23 -0.23 -0.30 -0.31 -0.43 -0.43 -0.50 -0.77 -0.73 -0.66 -0.66 -0.62 -0.57 -0.35 -0.35 -0.33 -0.15 -0.06 -0.06 0.02 0.02 0.02 0.03 0.04 0.04 0.04 0.03 0.03 0.20 0.26 0.26 0.32 0.35 0.49 0.49 0.64 0.69 0.53 0.53 0.48 0.41 0.41 0.26 0.18 0.07 0.07 0.02 0.00 0.00 0.00 0.00 0.00 0.00 0.00 0.00 0.00 0.00 0.01 0.01 0.03 0.05 0.05 0.01 0.00 0.00 0.00 0.02 0.02
0.00 0.00 0.00 0.00 0.00 0.00 0.00 0.00 0.00 0.00 0.00 0.00 0.00 0.00 0.00 0.00 0.00 0.00 0.00 0.00 0.00 0.00 -0.00 -0.00 -0.02 -0.02 -0.03 -0.06 -0.07 -0.07 -0.08 -0.11 -0.17 -0.17 -0.20 -0.21 -0.21 -0.32 -0.36 -0.46 -0.46 -0.57 -0.68 -0.75 -0.60 -0.60 -0.47 -0.45 -0.35 -0.35 -0.30 -0.15 -0.07 -0.07 -0.01 0.02 0.02 0.02 0.03 0.03 0.03 0.03 0.02 0.11 0.31 0.31 0.44 0.31 0.41 0.41 0.64 0.69 0.67 0.67 0.52 0.44 0.44 0.29 0.20 0.13 0.13 0.03 0.00 0.00 0.00 0.00 0.00 0.00 0.00 0.00 0.00 -0.00 0.00 0.00 0.04 0.05 0.05 0.02 0.00 0.00 0.00 0.00 0.01
0.00 0.00 0.00 0.00 0.00 0.00 0.00 0.00 0.00 0.00 0.00 0.00 0.00 0.00 0.00 0.00 0.00 0.00 0.00 0.00 0.00 0.00 0.00 -0.00 -0.02 -0.02 -0.02 -0.03 -0.07 -0.07 -0.07 -0.11 -0.17 -0.17 -0.20 -0.22 -0.22 -0.32 -0.35 -0.39 -0.39 -0.52 -0.68 -0.64 -0.50 -0.50 -0.32 -0.31 -0.34 -0.34 -0.34 -0.24 -0.08 -0.08 -0.03 0.00 0.00 0.02 0.02 0.03 0.03 0.02 0.02 0.10 0.39 0.39 0.46 0.49 0.36 0.36 0.49 0.68 0.68 0.68 0.64 0.51 0.51 0.41 0.25 0.17 0.17 0.09 0.02 0.00 0.00 0.00 0.00 0.00 0.00 0.00 0.00 0.00 0.00 0.00 0.01 0.04 0.04 0.02 0.00 0.00 0.00 0.00 0.00
0.00 0.00 0.00 0.00 0.00 0.00 0.00 0.00 0.00 0.00 0.00 0.00 0.00 0.00 0.00 0.00 0.00 0.00 0.00 0.00 0.00 0.00 -0.01 -0.00 -0.00 -0.00 -0.01 -0.02 -0.05 -0.05 -0.07 -0.10 -0.16 -0.16 -0.12 -0.18 -0.18 -0.23 -0.38 -0.42 -0.42 -0.40 -0.65 -0.81 -0.59 -0.59 -0.38 -0.37 -0.44 -0.44 -0.33 -0.24 -0.09 -0.09 -0.18 -0.10 -0.10 0.02 0.02 0.02 0.02 0.02 0.02 0.09 0.28 0.28 0.44 0.51 0.41 0.41 0.43 0.54 0.67 0.67 0.62 0.52 0.52 0.46 0.38 0.21 0.21 0.11 0.03 0.01 0.00 0.00 -0.00 -0.00 -0.00 -0.00 0.01 0.00 0.00 0.00 0.00 0.02 0.02 0.01 0.00 0.00 0.00 0.00 0.00
0.00 0.00 0.00 0.00 0.00 0.00 0.00 0.00 0.00 0.00 0.00 0.00 0.00 0.00 0.00 0.00 0.00 0.00 0.00 0.00 0.00 0.00 -0.01 -0.01 -0.01 -0.01 -0.01 -0.02 -0.04 -0.04 -0.06 -0.04 -0.11 -0.11 -0.07 -0.15 -0.15 -0.22 -0.37 -0.39 -0.39 -0.45 -0.62 -0.81 -0.86 -0.86 -0.80 -0.50 -0.50 -0.50 -0.39 -0.32 -0.23 -0.23 -0.24 -0.17 -0.17 -0.00 0.02 0.02 0.02 0.02 0.02 0.10 0.23 0.23 0.41 0.46 0.48 0.48 0.45 0.47 0.59 0.59 0.62 0.54 0.54 0.49 0.42 0.26 0.26 0.16 0.10 0.02 0.01 0.01 0.00 0.00 -0.00 -0.00 0.01 0.00 0.00 0.00 0.01 0.02 0.02 0.02 0.00 0.00 0.00 0.00 0.00
0.00 0.00 0.00 0.00 0.00 0.00 0.00 0.00 0.00 0.00 0.00 0.00 0.00 0.00 0.00 0.00 0.00 0.00 0.00 0.00 0.00 0.00 -0.00 -0.03 -0.02 -0.02 -0.03 -0.02 -0.02 -0.02 -0.05 -0.04 -0.05 -0.05 -0.04 -0.17 -0.17 -0.23 -0.30 -0.33 -0.33 -0.34 -0.65 -0.94 -1.18 -1.18 -1.15 -0.92 -0.74 -0.74 -0.58 -0.39 -0.38 -0.38 -0.37 -0.30 -0.30 -0.18 -0.01 0.01 0.01 0.02 0.02 0.02 0.21 0.21 0.31 0.37 0.40 0.40 0.37 0.50 0.53 0.53 0.55 0.48 0.48 0.51 0.48 0.42 0.42 0.20 0.13 0.11 0.01 0.01 0.00 0.00 0.00 0.00 0.00 0.00 0.00 0.00 0.01 0.02 0.02 0.02 0.00 0.00 0.00 0.00 0.00
0.00 0.00 0.00 0.00 0.00 0.00 -0.00 -0.00 -0.00 -0.00 -0.00 -0.00 0.00 0.00 0.00 0.00 0.00 0.00 0.00 0.00 0.00 0.00 0.00 -0.02 -0.03 -0.03 -0.03 -0.02 -0.03 -0.03 -0.04 -0.05 -0.03 -0.03 -0.05 -0.08 -0.08 -0.24 -0.25 -0.26 -0.26 -0.25 -0.72 -0.95 -1.13 -1.13 -1.41 -1.26 -0.96 -0.96 -0.73 -0.48 -0.41 -0.41 -0.52 -0.42 -0.42 -0.27 -0.02 -0.01 -0.01 0.01 0.02 0.06 0.21 0.21 0.27 0.35 0.38 0.38 0.44 0.58 0.59 0.59 0.58 0.43 0.43 0.47 0.53 0.47 0.47 0.38 0.18 0.13 0.06 0.06 0.02 0.01 0.00 0.00 0.00 0.01 0.00 0.00 0.00 0.00 0.00 0.01 0.01 0.00 0.00 0.00 0.00
-0.00 0.00 0.00 0.00 0.00 0.00 -0.00 -0.00 -0.00 -0.00 -0.00 -0.00 -0.00 -0.00 0.00 0.00 0.00 0.00 0.00 0.00 0.00 0.00 0.00 -0.00 -0.02 -0.02 -0.04 -0.03 -0.03 -0.03 -0.04 -0.04 -0.04 -0.04 -0.06 -0.11 -0.11 -0.27 -0.29 -0.28 -0.28 -0.34 -0.53 -0.94 -1.08 -1.08 -1.38 -1.30 -1.33 -1.33 -0.95 -0.77 -0.53 -0.53 -0.64 -0.45 -0.45 -0.38 -0.24 -0.03 -0.03 0.01 0.02 0.08 0.13 0.13 0.26 0.34 0.40 0.40 0.42 0.49 0.71 0.71 0.67 0.60 0.60 0.49 0.50 0.46 0.46 0.42 0.31 0.18 0.11 0.11 0.04 0.05 0.03 0.03 0.00 0.01 0.00 0.00 0.00 0.00 0.00 0.00 0.01 0.00 0.00 0.00 0.00
0.00 0.00 0.00 0.00 0.00 0.00 -0.00 -0.00 -0.00 -0.00 -0.00 -0.00 0.00 0.00 0.00 -0.00 -0.00 -0.00 -0.00 0.00 0.00 0.00 0.00 0.00 -0.00 -0.00 -0.03 -0.06 -0.03 -0.03 -0.04 -0.05 -0.05 -0.05 -0.13 -0.18 -0.18 -0.31 -0.36 -0.34 -0.34 -0.45 -0.57 -0.91 -0.97 -0.97 -1.01 -1.10 -1.18 -1.18 -1.24 -1.05 -0.69 -0.69 -0.68 -0.64 -0.64 -0.48 -0.35 -0.09 -0.09 0.00 0.01 0.08 0.14 0.14 0.26 0.34 0.36 0.36 0.37 0.52 0.79 0.79 1.23 1.17 1.17 0.66 0.55 0.59 0.59 0.46 0.34 0.21 0.14 0.14 0.09 0.04 0.05 0.05 0.03 0.02 0.00 0.00 0.00 0.00 0.00 0.00 0.01 0.00 0.00 0.00 0.00
0.00 0.00 0.00 0.00 0.00 0.00 0.00 0.00 0.00 0.00 0.00 0.00 0.00 0.00 0.00 -0.00 -0.00 -0.00 -0.00 -0.00 -0.00 -0.00 0.00 0.00 0.00 0.00 -0.01 -0.04 -0.06 -0.06 -0.05 -0.05 -0.07 -0.07 -0.13 -0.18 -0.18 -0.26 -0.37 -0.36 -0.36 -0.50 -0.63 -0.81 -0.95 -0.95 -0.93 -0.95 -1.03 -1.03 -1.21 -1.22 -1.07 -1.07 -0.86 -0.72 -0.72 -0.60 -0.50 -0.48 -0.48 -0.03 0.01 0.06 0.15 0.15 0.21 0.33 0.33 0.33 0.31 0.41 0.74 0.74 1.11 1.30 1.30 1.24 0.75 0.84 0.84 0.60 0.41 0.35 0.17 0.17 0.12 0.05 0.02 0.02 0.06 0.06 0.01 0.01 0.00 0.00 0.00 0.00 0.01 0.00 0.00 0.00 0.00
0.00 0.00 0.00 0.00 0.00 0.00 0.00 0.00 0.00 0.00 0.00 0.00 0.00 0.00 0.00 0.00 0.00 0.00 0.00 -0.00 -0.00 -0.00 0.00 0.00 0.00 0.00 0.00 -0.01 -0.07 -0.07 -0.07 -0.05 -0.07 -0.07 -0.09 -0.19 -0.19 -0.26 -0.39 -0.44 -0.44 -0.51 -0.69 -0.81 -0.87 -0.87 -0.85 -0.81 -0.82 -0.82 -0.79 -1.08 -1.15 -1.15 -1.09 -1.00 -1.00 -0.77 -0.64 -0.60 -0.60 -0.38 -0.05 -0.02 0.11 0.11 0.18 0.20 0.33 0.33 0.29 0.28 0.49 0.49 0.52 1.10 1.10 1.29 1.24 1.04 1.04 0.84 0.47 0.46 0.27 0.27 0.15 0.14 0.11 0.11 0.09 0.06 0.04 0.04 0.01 0.01 0.01 0.00 0.01 0.01 0.01 0.00 0.00
0.00 0.00 0.00 0.00 0.00 0.00 0.00 0.00 0.00 0.00 0.00 0.00 0.00 0.00 0.00 0.00 0.00 0.00 0.00 0.00 0.00 0.00 0.00 0.00 0.00 0.00 0.00 -0.00 -0.08 -0.08 -0.07 -0.04 -0.06 -0.06 -0.09 -0.20 -0.20 -0.25 -0.33 -0.46 -0.46 -0.53 -0.71 -0.78 -0.76 -0.76 -0.72 -0.56 -0.58 -0.58 -0.62 -0.74 -0.90 -0.90 -0.74 -1.07 -1.07 -1.07 -0.95 -0.82 -0.82 -0.56 -0.09 -0.02 0.05 0.05 0.14 0.15 0.30 0.30 0.27 0.27 0.34 0.34 0.35 0.60 0.60 1.09 1.22 1.11 1.11 0.97 0.82 0.59 0.42 0.42 0.24 0.16 0.14 0.14 0.13 0.08 0.08 0.08 0.03 0.03 0.03 0.01 0.01 0.01 0.01 0.01 0.00
-0.00 -0.00 0.00 0.00 0.00 0.00 0.00 0.00 0.00 0.00 0.00 0.00 0.00 0.00 0.00 0.00 0.00 0.00 0.00 0.00 0.00 0.00 0.00 0.00 -0.00 -0.00 -0.00 -0.00 -0.00 -0.00 -0.03 -0.03 -0.04 -0.04 -0.05 -0.07 -0.07 -0.18 -0.27 -0.38 -0.38 -0.45 -0.51 -0.60 -0.60 -0.60 -0.43 -0.22 -0.20 -0.20 -0.32 -0.41 -0.34 -0.34 -0.30 -0.35 -0.35 -0.69 -0.89 -0.78 -0.78 -0.99 -0.71 -0.13 -0.09 -0.09 -0.06 0.01 0.08 0.08 0.15 0.28 0.24 0.24 0.34 0.44 0.44 0.65 0.89 0.88 0.88 1.03 0.90 0.77 0.65 0.65 0.50 0.44 0.36 0.36 0.19 0.15 0.05 0.05 0.04 0.05 0.05 0.03 0.02 0.02 0.02 0.01 0.00
0.00 0.00 0.00 0.00 0.00 0.00 0.00 0.00 0.00 0.00 0.00 0.00 0.00 0.00 0.00 0.00 0.00 0.00 0.00 0.00 0.00 0.00 0.00 -0.00 -0.00 -0.00 -0.00 -0.00 -0.00 -0.00 -0.01 -0.02 -0.03 -0.03 -0.05 -0.06 -0.06 -0.11 -0.15 -0.21 -0.21 -0.36 -0.42 -0.48 -0.48 -0.48 -0.33 -0.17 -0.11 -0.11 -0.23 -0.28 -0.22 -0.22 -0.25 -0.21 -0.21 -0.26 -0.55 -0.41 -0.41 -0.82 -0.78 -0.55 -0.19 -0.19 -0.10 -0.11 -0.06 -0.06 0.11 0.24 0.30 0.30 0.36 0.49 0.49 0.61 0.74 0.74 0.74 0.89 0.93 0.75 0.68 0.68 0.59 0.42 0.35 0.35 0.26 0.18 0.05 0.05 0.06 0.07 0.07 0.03 0.03 0.02 0.02 0.01 0.00
-0.00 -0.00 0.00 0.00 0.00 0.00 0.00 0.00 0.00 0.00 0.00 0.00 0.00 0.00 0.00 0.00 0.00 0.00 0.00 0.00 0.00 0.00 0.00 0.00 0.00 0.00 0.00 0.00 0.00 0.00 -0.00 -0.02 -0.03 -0.03 -0.05 -0.05 -0.05 -0.07 -0.15 -0.19 -0.19 -0.33 -0.39 -0.45 -0.38 -0.38 -0.25 -0.13 -0.08 -0.08 -0.07 -0.19 -0.16 -0.16 -0.17 -0.17 -0.17 -0.14 -0.08 -0.13 -0.13 -0.28 -0.65 -0.56 -0.26 -0.26 -0.14 -0.16 -0.09 -0.09 0.05 0.13 0.29 0.29 0.35 0.35 0.35 0.65 0.76 0.86 0.86 0.79 0.86 0.81 0.65 0.65 0.62 0.47 0.32 0.32 0.26 0.14 0.08 0.08 0.08 0.07 0.07 0.06 0.05 0.02 0.02 0.01 0.01
-0.00 -0.00 -0.00 -0.00 -0.00 -0.00 0.00 0.00 0.00 0.00 0.00 0.00 0.00 0.00 0.00 0.00 0.00 0.00 0.00 0.00 0.00 0.00 0.00 0.00 0.00 0.00 0.00 0.00 0.00 0.00 -0.00 -0.02 -0.03 -0.03 -0.05 -0.06 -0.06 -0.06 -0.13 -0.16 -0.16 -0.22 -0.35 -0.39 -0.33 -0.33 -0.21 -0.13 -0.07 -0.07 -0.04 -0.08 -0.10 -0.10 -0.11 -0.11 -0.11 -0.11 -0.06 -0.02 -0.02 -0.06 -0.16 -0.11 -0.17 -0.17 -0.15 -0.20 -0.18 -0.18 -0.02 0.09 0.13 0.13 0.32 0.35 0.35 0.52 0.80 0.91 0.91 0.86 0.76 0.80 0.58 0.58 0.59 0.55 0.35 0.35 0.24 0.15 0.10 0.10 0.13 0.15 0.15 0.05 0.04 0.02 0.02 0.00 0.00
-0.00 -0.00 -0.00 -0.00 -0.00 -0.00 -0.00 -0.00 -0.00 -0.00 -0.00 0.00 0.00 0.00 0.00 0.00 0.00 0.00 0.00 0.00 0.00 0.00 0.00 0.00 0.00 0.00 0.00 0.00 0.00 0.00 0.00 -0.01 -0.03 -0.03 -0.05 -0.06 -0.06 -0.06 -0.09 -0.15 -0.15 -0.19 -0.31 -0.35 -0.32 -0.32 -0.20 -0.13 -0.05 -0.05 -0.03 -0.02 -0.04 -0.04 -0.04 -0.06 -0.06 -0.06 -0.03 -0.00 -0.00 -0.00 -0.02 -0.04 -0.06 -0.06 -0.09 -0.28 -0.26 -0.26 -0.16 0.08 0.06 0.06 0.16 0.35 0.35 0.49 0.78 0.83 0.83 0.88 0.78 0.88 0.74 0.74 0.62 0.55 0.49 0.49 0.24 0.15 0.09 0.09 0.13 0.15 0.15 0.12 0.04 0.00 0.00 0.00 0.00
-0.00 -0.00 -0.00 -0.00 -0.00 -0.00 -0.00 -0.00 -0.00 -0.00 -0.00 -0.00 0.00 0.00 0.00 0.00 0.00 0.00 0.00 0.00 0.00 0.00 0.00 0.00 0.00 0.00 0.00 0.00 0.00 0.00 0.00 -0.00 -0.03 -0.03 -0.04 -0.07 -0.07 -0.08 -0.11 -0.15 -0.15 -0.18 -0.22 -0.31 -0.29 -0.29 -0.19 -0.14 -0.08 -0.08 -0.03 -0.02 -0.02 -0.02 -0.04 -0.03 -0.03 -0.02 0.00 -0.01 -0.01 0.00 -0.02 -0.06 -0.06 -0.06 -0.07 -0.12 -0.29 -0.29 -0.21 0.05 0.10 0.10 0.15 0.39 0.39 0.55 0.72 0.80 0.80 0.80 0.82 0.92 0.80 0.80 0.61 0.57 0.47 0.47 0.37 0.14 0.10 0.10 0.07 0.10 0.10 0.10 0.07 0.01 0.01 0.00 0.00
-0.00 -0.00 -0.00 -0.00 -0.01 -0.01 -0.01 -0.00 -0.01 -0.01 -0.01 -0.00 -0.00 -0.00 -0.00 0.00 0.00 0.00 0.00 0.00 0.00 0.00 0.00 0.00 0.00 0.00 0.00 0.00 0.00 0.00 0.00 -0.00 -0.02 -0.02 -0.04 -0.06 -0.06 -0.08 -0.12 -0.16 -0.16 -0.18 -0.25 -0.31 -0.27 -0.27 -0.24 -0.16 -0.08 -0.08 -0.02 -0.01 -0.03 -0.03 -0.10 -0.07 -0.07 -0.02 -0.00 0.00 0.00 0.00 -0.02 -0.03 -0.06 -0.06 -0.06 -0.13 -0.26 -0.26 -0.25 -0.16 0.13 0.13 0.22 0.28 0.28 0.57 0.71 0.76 0.76 0.74 0.71 0.71 0.89 0.89 0.76 0.73 0.48 0.48 0.35 0.21 0.09 0.09 0.09 0.09 0.09 0.09 0.07 0.02 0.02 0.00 0.00
-0.01 -0.01 -0.00 -0.01 -0.01 -0.01 -0.01 -0.01 -0.01 -0.01 -0.01 -0.01 -0.00 -0.00 -0.00 -0.00 -0.00 0.00 0.00 0.00 0.00 0.00 0.00 0.00 0.00 0.00 0.00 0.00 0.00 0.00 0.00 -0.00 -0.02 -0.02 -0.04 -0.05 -0.05 -0.08 -0.13 -0.17 -0.17 -0.21 -0.23 -0.33 -0.30 -0.30 -0.27 -0.18 -0.11 -0.11 -0.05 -0.01 -0.02 -0.02 -0.08 -0.09 -0.09 -0.04 -0.02 0.00 0.00 0.00 0.01 0.01 -0.05 -0.05 -0.07 -0.09 -0.33 -0.33 -0.29 -0.19 -0.01 -0.01 0.27 0.33 0.33 0.46 0.69 0.78 0.78 0.78 0.66 0.64 0.73 0.73 0.83 0.73 0.63 0.63 0.39 0.30 0.12 0.12 0.07 0.08 0.08 0.11 0.04 0.01 0.01 0.00 0.00
-0.01 -0.01 -0.01 -0.01 -0.00 -0.00 -0.00 -0.00 -0.00 -0.00 -0.01 -0.01 -0.00 -0.00 -0.00 -0.00 -0.00 -0.00 -0.00 0.00 0.00 0.00 0.00 0.00 0.00 0.00 0.00 0.00 0.00 0.00 0.00 -0.00 -0.01 -0.01 -0.04 -0.07 -0.07 -0.07 -0.13 -0.21 -0.21 -0.26 -0.30 -0.39 -0.35 -0.35 -0.30 -0.30 -0.13 -0.13 -0.07 -0.07 -0.02 -0.02 -0.07 -0.11 -0.11 -0.05 -0.01 0.00 0.00 0.00 0.00 -0.00 -0.05 -0.05 -0.05 -0.07 -0.34 -0.34 -0.54 -0.21 0.00 0.00 0.25 0.41 0.41 0.52 0.64 0.83 0.83 0.81 0.73 0.65 0.66 0.66 0.66 0.65 0.59 0.59 0.56 0.46 0.21 0.21 0.09 0.06 0.06 0.10 0.11 0.01 0.01 0.01 0.00
-0.01 -0.01 -0.01 -0.00 -0.01 -0.01 -0.01 -0.01 -0.01 -0.01 -0.00 -0.00 -0.00 -0.00 -0.00 -0.00 -0.00 -0.00 -0.00 -0.00 -0.00 0.00 0.00 0.00 0.00 0.00 0.00 0.00 0.00 0.00 0.00 -0.00 -0.00 -0.00 -0.04 -0.07 -0.07 -0.10 -0.13 -0.23 -0.23 -0.30 -0.37 -0.41 -0.41 -0.41 -0.37 -0.37 -0.18 -0.18 -0.13 -0.12 -0.05 -0.05 -0.09 -0.15 -0.15 -0.06 -0.02 -0.01 -0.01 0.00 0.00 -0.00 -0.02 -0.02 -0.04 -0.07 -0.23 -0.23 -0.48 -0.63 0.04 0.04 0.28 0.50 0.50 0.61 0.68 0.76 0.76 0.86 0.74 0.70 0.71 0.71 0.59 0.44 0.51 0.51 0.57 0.71 0.38 0.38 0.16 0.11 0.11 0.11 0.09 0.04 0.04 0.01 0.01
-0.01 -0.01 -0.01 -0.01 -0.01 -0.01 -0.01 -0.01 -0.01 -0.01 -0.00 -0.00 -0.00 -0.00 -0.00 -0.00 -0.00 -0.00 -0.00 -0.00 -0.00 0.00 0.00 0.00 0.00 0.00 0.00 0.00 0.00 0.00 -0.00 -0.00 -0.01 -0.01 -0.02 -0.07 -0.07 -0.09 -0.14 -0.22 -0.22 -0.32 -0.47 -0.48 -0.47 -0.47 -0.43 -0.44 -0.39 -0.39 -0.20 -0.18 -0.12 -0.12 -0.13 -0.17 -0.17 -0.13 -0.02 -0.01 -0.01 -0.00 0.00 -0.00 -0.01 -0.01 -0.04 -0.08 -0.19 -0.19 -0.38 -0.72 -0.13 -0.13 0.15 0.43 0.43 0.67 0.72 0.83 0.83 0.87 0.76 0.70 0.76 0.76 0.60 0.46 0.37 0.37 0.51 0.65 0.77 0.77 0.25 0.14 0.14 0.07 0.05 0.01 0.01 0.01 0.00
-0.02 -0.02 -0.01 -0.01 -0.01 -0.01 -0.01 -0.01 -0.01 -0.01 -0.01 -0.00 -0.00 -0.00 -0.00 -0.00 -0.00 -0.00 0.00 -0.00 -0.00 -0.00 -0.00 0.00 0.00 0.00 0.00 0.00 -0.00 -0.00 -0.00 -0.01 -0.01 -0.01 -0.02 -0.08 -0.08 -0.09 -0.10 -0.24 -0.24 -0.34 -0.42 -0.53 -0.49 -0.49 -0.46 -0.43 -0.43 -0.43 -0.27 -0.25 -0.22 -0.22 -0.21 -0.22 -0.22 -0.19 -0.03 -0.00 -0.00 -0.01 -0.01 -0.00 -0.02 -0.02 -0.02 -0.08 -0.10 -0.10 -0.21 -0.63 -0.82 -0.82 -0.13 0.32 0.32 0.53 0.76 0.89 0.89 0.99 0.75 0.68 0.71 0.71 0.68 0.53 0.32 0.32 0.30 0.54 0.72 0.72 0.60 0.17 0.17 0.10 0.05 0.01 0.01 0.01 0.00
-0.02 -0.02 -0.02 -0.01 -0.01 -0.01 -0.01 -0.01 -0.01 -0.01 -0.00 -0.00 -0.00 -0.00 -0.00 -0.00 -0.00 -0.00 -0.00 -0.00 -0.00 -0.00 -0.00 0.00 0.00 0.00 0.00 0.00 -0.00 -0.00 -0.00 -0.01 -0.02 -0.02 -0.03 -0.06 -0.06 -0.10 -0.11 -0.25 -0.25 -0.33 -0.41 -0.56 -0.50 -0.50 -0.48 -0.43 -0.42 -0.42 -0.39 -0.25 -0.19 -0.19 -0.19 -0.25 -0.25 -0.15 -0.10 0.00 0.00 0.00 -0.01 0.00 0.00 0.00 -0.04 -0.03 -0.07 -0.07 -0.08 -0.43 -0.72 -0.72 -0.92 0.16 0.16 0.47 0.60 0.86 0.86 1.03 0.93 0.67 0.69 0.69 0.80 0.64 0.39 0.39 0.24 0.24 0.60 0.60 0.59 0.37 0.37 0.11 0.05 0.01 0.01 0.00 0.00
-0.01 -0.02 -0.02 -0.01 -0.01 -0.01 -0.01 -0.01 -0.01 -0.01 -0.00 -0.00 -0.00 -0.00 -0.00 0.00 0.00 -0.00 -0.00 -0.00 -0.00 -0.00 -0.00 -0.00 0.00 0.00 0.00 0.00 -0.00 -0.00 -0.00 -0.01 -0.03 -0.03 -0.03 -0.06 -0.06 -0.10 -0.10 -0.17 -0.17 -0.34 -0.43 -0.59 -0.50 -0.50 -0.53 -0.52 -0.35 -0.35 -0.32 -0.20 -0.15 -0.15 -0.11 -0.20 -0.20 -0.11 -0.07 0.00 0.00 0.00 0.00 0.00 -0.02 -0.02 -0.06 -0.03 -0.01 -0.01 -0.05 -0.10 -0.49 -0.49 -0.96 -0.69 -0.69 0.35 0.45 0.60 0.60 0.97 0.92 0.72 0.68 0.68 0.80 0.89 0.46 0.46 0.29 0.25 0.31 0.31 0.55 0.36 0.36 0.19 0.07 0.04 0.04 0.01 0.00
-0.02 -0.02 -0.02 -0.02 -0.01 -0.01 -0.01 -0.01 -0.01 -0.01 -0.01 -0.00 -0.00 -0.00 0.00 -0.00 -0.00 -0.00 -0.00 -0.00 -0.00 -0.00 -0.00 -0.00 -0.00 -0.00 0.00 -0.00 -0.00 -0.00 -0.01 -0.01 -0.02 -0.02 -0.03 -0.04 -0.04 -0.09 -0.15 -0.22 -0.22 -0.38 -0.44 -0.61 -0.49 -0.49 -0.48 -0.51 -0.36 -0.36 -0.25 -0.20 -0.12 -0.12 -0.12 -0.14 -0.14 -0.14 -0.04 -0.01 -0.01 -0.00 0.00 -0.00 -0.05 -0.05 -0.06 -0.04 -0.01 -0.01 -0.05 -0.06 -0.26 -0.26 -0.83 -0.93 -0.93 0.10 0.23 0.44 0.44 0.65 0.91 0.75 0.67 0.67 0.78 0.85 0.85 0.85 0.35 0.30 0.29 0.29 0.34 0.27 0.27 0.17 0.10 0.04 0.04 0.02 0.01
-0.01 -0.02 -0.03 -0.02 -0.02 -0.02 -0.02 -0.01 -0.01 -0.01 -0.00 -0.00 -0.00 -0.00 -0.00 -0.01 -0.01 -0.01 -0.01 -0.01 -0.01 -0.01 -0.01 -0.01 -0.01 -0.01 -0.01 -0.00 -0.00 -0.00 -0.01 -0.02 -0.03 -0.03 -0.04 -0.04 -0.04 -0.04 -0.17 -0.22 -0.22 -0.30 -0.49 -0.63 -0.56 -0.56 -0.47 -0.50 -0.45 -0.45 -0.24 -0.17 -0.12 -0.12 -0.13 -0.17 -0.17 -0.23 -0.06 -0.01 -0.01 -0.00 -0.01 -0.03 -0.04 -0.04 -0.08 -0.07 -0.01 -0.01 -0.05 -0.08 -0.14 -0.14 -0.59 -1.01 -1.01 -0.76 -0.05 0.19 0.19 0.50 0.68 0.74 0.67 0.67 0.67 0.83 0.86 0.86 0.63 0.33 0.31 0.31 0.30 0.25 0.25 0.11 0.07 0.02 0.02 0.02 0.01
-0.02 -0.02 -0.02 -0.02 -0.01 -0.01 -0.01 -0.01 -0.00 -0.00 -0.00 -0.01 -0.01 -0.01 -0.02 -0.03 -0.03 -0.02 -0.02 -0.02 -0.02 -0.01 -0.01 -0.01 -0.01 -0.01 -0.01 -0.00 -0.00 -0.00 -0.01 -0.04 -0.06 -0.06 -0.05 -0.06 -0.06 -0.04 -0.17 -0.24 -0.24 -0.30 -0.52 -0.62 -0.55 -0.55 -0.48 -0.54 -0.48 -0.48 -0.25 -0.17 -0.11 -0.11 -0.17 -0.21 -0.21 -0.24 -0.09 -0.02 -0.02 -0.00 -0.01 -0.03 -0.04 -0.04 -0.08 -0.11 -0.08 -0.08 -0.06 -0.13 -0.15 -0.15 -0.10 -0.84 -0.84 -0.92 -0.65 0.02 0.02 0.38 0.52 0.68 0.61 0.61 0.60 0.60 0.92 0.92 0.68 0.52 0.32 0.32 0.31 0.25 0.25 0.16 0.04 0.01 0.01 0.01 0.00
-0.03 -0.02 -0.02 -0.02 -0.01 -0.01 -0.01 -0.01 -0.00 -0.00 -0.00 -0.01 -0.02 -0.02 -0.01 -0.02 -0.02 -0.02 -0.02 -0.02 -0.02 -0.02 -0.01 -0.01 -0.01 -0.01 0.00 0.01 0.01 0.01 0.00 -0.04 -0.07 -0.07 -0.08 -0.08 -0.08 -0.06 -0.07 -0.25 -0.25 -0.32 -0.38 -0.57 -0.51 -0.51 -0.46 -0.55 -0.52 -0.52 -0.41 -0.17 -0.12 -0.12 -0.11 -0.24 -0.24 -0.25 -0.19 -0.05 -0.05 -0.02 -0.02 -0.04 -0.05 -0.05 -0.06 -0.14 -0.14 -0.14 -0.17 -0.15 -0.15 -0.15 -0.12 -0.17 -0.17 -0.87 -0.57 -0.28 -0.28 0.27 0.36 0.60 0.59 0.59 0.55 0.60 0.74 0.74 0.77 0.56 0.39 0.39 0.31 0.29 0.29 0.17 0.07 0.00 0.00 0.01 0.00
-0.02 -0.02 -0.02 -0.02 -0.02 -0.02 -0.02 -0.01 -0.01 -0.01 -0.00 -0.00 -0.01 -0.01 -0.00 -0.00 -0.00 -0.00 -0.00 -0.00 -0.00 -0.00 -0.01 -0.00 -0.00 -0.00 -0.00 0.00 -0.00 -0.00 -0.00 -0.04 -0.07 -0.07 -0.09 -0.09 -0.09 -0.09 -0.10 -0.27 -0.27 -0.31 -0.41 -0.53 -0.47 -0.47 -0.42 -0.49 -0.54 -0.54 -0.50 -0.27 -0.16 -0.16 -0.12 -0.16 -0.16 -0.22 -0.19 -0.13 -0.13 -0.02 -0.01 -0.02 -0.04 -0.04 -0.11 -0.19 -0.18 -0.18 -0.21 -0.20 -0.10 -0.10 -0.14 -0.14 -0.14 -0.33 -0.45 -0.24 -0.24 -0.05 0.21 0.49 0.51 0.51 0.53 0.55 0.72 0.72 0.89 0.58 0.41 0.41 0.36 0.33 0.33 0.21 0.09 0.02 0.02 0.00 0.00
-0.02 -0.02 -0.02 -0.02 -0.02 -0.02 -0.02 -0.01 -0.00 -0.00 -0.00 -0.00 -0.00 -0.00 -0.01 -0.00 -0.00 -0.00 -0.00 -0.00 -0.00 -0.00 -0.01 -0.01 -0.01 -0.01 -0.01 -0.00 -0.00 -0.00 -0.01 -0.02 -0.06 -0.06 -0.06 -0.08 -0.08 -0.10 -0.12 -0.15 -0.15 -0.36 -0.45 -0.50 -0.50 -0.50 -0.44 -0.42 -0.53 -0.53 -0.57 -0.46 -0.26 -0.26 -0.19 -0.26 -0.26 -0.20 -0.17 -0.12 -0.12 -0.03 -0.02 -0.04 -0.03 -0.03 -0.16 -0.21 -0.29 -0.29 -0.24 -0.21 -0.24 -0.24 -0.14 -0.17 -0.17 -0.18 -0.19 -0.16 -0.16 -0.03 0.11 0.40 0.44 0.44 0.39 0.46 0.65 0.65 0.87 0.83 0.45 0.45 0.39 0.40 0.40 0.39 0.11 0.02 0.02 0.00 0.00
-0.01 -0.02 -0.02 -0.02 -0.01 -0.01 -0.01 -0.01 -0.00 -0.00 -0.00 -0.03 -0.03 -0.03 -0.02 -0.02 -0.02 -0.01 -0.01 -0.01 -0.01 -0.01 -0.01 -0.02 -0.02 -0.02 -0.01 -0.00 -0.00 -0.00 -0.01 -0.02 -0.05 -0.05 -0.05 -0.07 -0.07 -0.09 -0.13 -0.18 -0.18 -0.36 -0.47 -0.53 -0.55 -0.55 -0.50 -0.41 -0.54 -0.54 -0.51 -0.47 -0.41 -0.41 -0.29 -0.33 -0.33 -0.27 -0.16 -0.10 -0.10 -0.04 -0.02 -0.05 -0.04 -0.04 -0.13 -0.20 -0.24 -0.24 -0.27 -0.30 -0.27 -0.27 -0.18 -0.13 -0.13 -0.14 -0.05 -0.11 -0.11 -0.01 0.17 0.24 0.37 0.37 0.32 0.31 0.60 0.60 0.84 0.82 0.60 0.60 0.44 0.47 0.47 0.47 0.35 0.03 0.03 0.00 0.00
-0.01 -0.02 -0.02 -0.02 -0.01 -0.01 -0.01 -0.01 -0.01 -0.01 -0.02 -0.04 -0.09 -0.09 -0.09 -0.08 -0.08 -0.05 -0.04 -0.04 -0.04 -0.02 -0.02 -0.02 -0.02 -0.02 -0.01 -0.01 -0.00 -0.00 -0.01 -0.02 -0.03 -0.03 -0.05 -0.06 -0.06 -0.07 -0.14 -0.19 -0.19 -0.26 -0.38 -0.49 -0.57 -0.57 -0.57 -0.46 -0.48 -0.48 -0.47 -0.38 -0.44 -0.44 -0.42 -0.45 -0.45 -0.31 -0.21 -0.11 -0.11 -0.04 -0.02 -0.04 -0.04 -0.04 -0.03 -0.16 -0.20 -0.20 -0.23 -0.36 -0.29 -0.29 -0.18 -0.04 -0.04 0.04 0.09 -0.08 -0.08 0.04 0.23 0.27 0.36 0.36 0.30 0.24 0.35 0.35 0.82 0.85 0.60 0.60 0.43 0.49 0.49 0.51 0.39 0.21 0.21 0.00 0.00
-0.00 -0.01 -0.01 -0.01 -0.01 -0.01 -0.01 -0.00 -0.00 -0.00 -0.00 -0.01 -0.02 -0.02 -0.05 -0.06 -0.06 -0.06 -0.05 -0.05 -0.05 -0.05 -0.03 -0.04 -0.05 -0.05 -0.02 -0.01 -0.00 -0.00 -0.01 -0.02 -0.03 -0.03 -0.05 -0.05 -0.05 -0.08 -0.16 -0.22 -0.22 -0.25 -0.32 -0.42 -0.53 -0.53 -0.71 -0.56 -0.54 -0.54 -0.48 -0.36 -0.38 -0.38 -0.46 -0.50 -0.50 -0.40 -0.26 -0.10 -0.10 -0.05 -0.06 -0.03 -0.05 -0.05 -0.02 -0.02 -0.14 -0.14 -0.16 -0.21 -0.30 -0.30 -0.19 -0.09 -0.09 -0.12 0.13 -0.05 -0.05 -0.09 0.22 0.29 0.37 0.37 0.33 0.27 0.31 0.31 0.53 0.79 0.66 0.66 0.43 0.40 0.40 0.50 0.40 0.19 0.19 0.05 0.00
0.01 0.00 -0.00 -0.01 -0.01 -0.01 -0.00 -0.00 -0.00 -0.00 -0.00 -0.00 -0.00 -0.00 0.00 -0.00 -0.00 -0.01 -0.02 -0.03 -0.03 -0.04 -0.08 -0.08 -0.08 -0.08 -0.06 -0.01 -0.01 -0.01 -0.00 -0.02 -0.05 -0.05 -0.05 -0.06 -0.06 -0.10 -0.14 -0.23 -0.23 -0.25 -0.21 -0.25 -0.34 -0.34 -0.47 -0.68 -0.68 -0.68 -0.63 -0.61 -0.34 -0.34 -0.31 -0.38 -0.38 -0.49 -0.35 -0.21 -0.21 -0.07 -0.03 -0.05 -0.05 -0.05 -0.02 -0.02 -0.02 -0.02 -0.06 -0.19 -0.25 -0.25 -0.17 -0.10 -0.10 -0.10 -0.04 0.06 0.06 -0.19 -0.25 -0.04 0.33 0.33 0.28 0.31 0.26 0.26 0.44 0.68 0.88 0.88 0.78 0.48 0.48 0.36 0.37 0.29 0.29 0.09 0.02
0.01 0.01 -0.00 -0.01 -0.01 -0.01 -0.00 -0.00 -0.01 -0.01 -0.01 -0.01 -0.01 -0.01 -0.00 -0.00 -0.00 -0.01 -0.02 -0.02 -0.02 -0.02 -0.02 -0.07 -0.09 -0.09 -0.10 -0.07 -0.04 -0.04 -0.01 -0.03 -0.05 -0.05 -0.05 -0.07 -0.07 -0.13 -0.22 -0.27 -0.27 -0.25 -0.22 -0.19 -0.28 -0.28 -0.38 -0.50 -0.62 -0.62 -0.65 -0.62 -0.53 -0.53 -0.28 -0.34 -0.34 -0.45 -0.35 -0.15 -0.15 -0.07 -0.03 -0.04 -0.06 -0.06 -0.05 -0.03 -0.02 -0.02 -0.02 -0.19 -0.20 -0.20 -0.17 -0.15 -0.15 -0.19 -0.12 0.04 0.04 -0.11 -0.32 -0.10 0.11 0.11 0.25 0.28 0.25 0.25 0.29 0.63 0.85 0.85 0.77 0.62 0.62 0.46 0.40 0.36 0.36 0.24 0.04
0.01 0.01 -0.00 -0.01 -0.01 -0.01 -0.01 -0.01 -0.02 -0.02 -0.02 -0.01 -0.01 -0.01 -0.01 -0.00 -0.00 -0.01 -0.02 -0.02 -0.02 -0.02 -0.02 -0.05 -0.07 -0.07 -0.10 -0.11 -0.10 -0.10 -0.08 -0.07 -0.10 -0.10 -0.08 -0.06 -0.06 -0.17 -0.25 -0.27 -0.27 -0.20 -0.20 -0.17 -0.24 -0.24 -0.30 -0.37 -0.42 -0.42 -0.53 -0.49 -0.45 -0.45 -0.33 -0.30 -0.30 -0.35 -0.46 -0.18 -0.18 -0.07 -0.04 -0.03 -0.06 -0.06 -0.07 -0.04 -0.00 -0.00 -0.00 -0.04 -0.14 -0.14 -0.13 -0.16 -0.16 -0.17 -0.20 -0.02 -0.02 -0.11 -0.25 -0.17 0.04 0.04 0.18 0.20 0.19 0.19 0.24 0.33 0.79 0.79 0.73 0.60 0.60 0.62 0.52 0.47 0.47 0.31 0.16
0.02 0.01 -0.00 -0.00 -0.00 -0.00 -0.01 -0.02 -0.02 -0.02 -0.02 -0.02 -0.02 -0.02 -0.02 -0.01 -0.01 -0.00 -0.01 -0.01 -0.01 -0.01 -0.00 -0.02 -0.05 -0.05 -0.06 -0.07 -0.08 -0.08 -0.08 -0.05 -0.12 -0.12 -0.10 -0.12 -0.12 -0.20 -0.25 -0.21 -0.21 -0.17 -0.16 -0.18 -0.19 -0.19 -0.31 -0.33 -0.34 -0.34 -0.45 -0.39 -0.35 -0.35 -0.34 -0.32 -0.32 -0.32 -0.43 -0.17 -0.17 -0.08 -0.08 -0.06 -0.07 -0.07 -0.07 -0.04 0.01 0.01 0.01 -0.01 -0.08 -0.08 -0.12 -0.12 -0.12 -0.09 -0.15 -0.10 -0.10 -0.11 -0.30 -0.36 -0.04 -0.04 0.10 0.18 0.10 0.10 0.17 0.28 0.50 0.50 0.74 0.60 0.60 0.60 0.58 0.62 0.62 0.39 0.19
0.02 0.01 0.01 -0.00 -0.01 -0.01 -0.01 -0.01 -0.02 -0.02 -0.02 -0.03 -0.03 -0.03 -0.03 -0.01 -0.01 -0.00 -0.00 -0.00 -0.00 0.00 0.00 0.00 -0.02 -0.02 -0.04 -0.04 -0.04 -0.04 -0.04 -0.02 -0.06 -0.06 -0.18 -0.21 -0.21 -0.21 -0.28 -0.21 -0.21 -0.21 -0.19 -0.19 -0.21 -0.21 -0.23 -0.26 -0.26 -0.26 -0.33 -0.39 -0.32 -0.32 -0.46 -0.37 -0.37 -0.34 -0.36 -0.31 -0.31 -0.07 -0.10 -0.11 -0.06 -0.06 -0.06 -0.08 0.01 0.01 0.01 0.01 -0.02 -0.02 -0.06 -0.06 -0.06 -0.02 -0.05 -0.16 -0.16 -0.15 -0.31 -0.35 -0.31 -0.31 0.03 0.16 0.14 0.14 0.15 0.24 0.43 0.43 0.78 0.77 0.77 0.59 0.50 0.48 0.48 0.57 0.24
0.01 0.01 0.01 0.00 -0.00 -0.00 -0.00 -0.01 -0.01 -0.01 -0.02 -0.03 -0.03 -0.03 -0.03 -0.02 -0.02 -0.01 0.00 0.01 0.01 0.01 0.01 0.01 -0.01 -0.01 -0.03 -0.05 -0.05 -0.05 -0.02 -0.03 -0.06 -0.06 -0.18 -0.23 -0.23 -0.25 -0.31 -0.28 -0.28 -0.26 -0.31 -0.24 -0.25 -0.25 -0.26 -0.24 -0.21 -0.21 -0.25 -0.42 -0.44 -0.44 -0.61 -0.56 -0.56 -0.35 -0.28 -0.25 -0.25 -0.19 -0.10 -0.15 -0.13 -0.13 -0.07 -0.10 0.01 0.01 0.01 0.02 0.01 0.01 -0.01 -0.04 -0.04 0.00 0.00 -0.10 -0.10 -0.19 -0.29 -0.31 -0.35 -0.35 -0.17 0.12 0.14 0.14 0.13 0.19 0.39 0.39 0.72 0.75 0.75 0.63 0.42 0.37 0.37 0.44 0.34
0.02 0.03 0.02 0.01 -0.00 -0.00 -0.01 -0.01 -0.01 -0.01 -0.02 -0.03 -0.03 -0.03 -0.02 -0.02 -0.02 -0.01 0.00 0.01 0.01 0.02 0.03 0.03 0.03 0.03 -0.01 -0.03 -0.06 -0.06 -0.03 -0.05 -0.11 -0.11 -0.21 -0.23 -0.23 -0.28 -0.29 -0.28 -0.28 -0.27 -0.34 -0.35 -0.36 -0.36 -0.33 -0.39 -0.25 -0.25 -0.19 -0.30 -0.61 -0.61 -0.77 -0.73 -0.73 -0.50 -0.29 -0.25 -0.25 -0.23 -0.13 -0.14 -0.12 -0.12 -0.09 -0.05 -0.02 -0.02 0.02 0.02 0.03 0.03 0.01 -0.02 -0.02 -0.04 -0.04 -0.05 -0.05 -0.20 -0.21 -0.27 -0.27 -0.27 -0.05 0.10 0.14 0.14 0.13 0.18 0.27 0.27 0.68 0.72 0.72 0.62 0.51 0.33 0.33 0.34 0.26
0.02 0.02 0.02 0.01 0.01 0.01 0.00 0.01 -0.00 -0.00 -0.01 -0.02 -0.03 -0.03 -0.02 -0.01 -0.01 -0.01 -0.00 -0.01 -0.01 0.00 0.06 0.07 0.05 0.05 0.02 -0.01 -0.04 -0.04 -0.07 -0.08 -0.14 -0.14 -0.17 -0.19 -0.19 -0.24 -0.31 -0.28 -0.28 -0.29 -0.33 -0.43 -0.42 -0.42 -0.44 -0.45 -0.40 -0.40 -0.24 -0.23 -0.41 -0.41 -0.80 -0.87 -0.87 -0.67 -0.44 -0.29 -0.29 -0.25 -0.18 -0.12 -0.14 -0.14 -0.14 -0.10 -0.05 -0.05 0.02 0.02 0.04 0.04 0.07 0.02 0.02 0.00 0.02 -0.07 -0.07 -0.16 -0.14 -0.20 -0.17 -0.17 0.21 0.29 0.31 0.31 0.19 0.20 0.27 0.27 0.40 0.66 0.66 0.61 0.44 0.31 0.31 0.26 0.20
0.03 0.03 0.02 0.01 0.01 0.01 0.01 0.01 0.02 0.02 0.01 -0.00 -0.02 -0.02 -0.02 -0.02 -0.02 -0.02 -0.03 -0.05 -0.05 -0.04 0.02 0.05 0.05 0.05 0.01 0.01 -0.02 -0.02 -0.04 -0.10 -0.15 -0.15 -0.15 -0.15 -0.15 -0.15 -0.18 -0.13 -0.13 -0.30 -0.36 -0.44 -0.54 -0.54 -0.47 -0.48 -0.43 -0.43 -0.27 -0.25 -0.31 -0.31 -0.39 -0.88 -0.88 -0.83 -0.57 -0.49 -0.49 -0.25 -0.21 -0.20 -0.17 -0.17 -0.14 -0.10 -0.10 -0.10 -0.07 -0.02 0.04 0.04 0.07 0.04 0.04 0.03 0.05 0.01 0.01 -0.07 -0.08 -0.09 0.05 0.05 0.39 0.46 0.61 0.61 0.50 0.24 0.28 0.28 0.38 0.58 0.58 0.59 0.41 0.28 0.28 0.33 0.23
0.02 0.03 0.00 -0.00 0.01 0.01 0.02 0.02 0.03 0.03 0.02 0.02 0.00 0.00 0.00 0.00 0.00 -0.01 -0.02 -0.03 -0.03 -0.03 -0.03 0.00 0.03 0.03 0.01 0.00 -0.02 -0.02 -0.03 -0.12 -0.16 -0.16 -0.13 -0.13 -0.13 -0.09 -0.09 -0.05 -0.05 -0.09 -0.32 -0.50 -0.59 -0.59 -0.64 -0.56 -0.46 -0.46 -0.41 -0.32 -0.29 -0.29 -0.31 -0.52 -0.52 -0.81 -0.69 -0.62 -0.62 -0.26 -0.22 -0.26 -0.21 -0.21 -0.18 -0.12 -0.15 -0.15 -0.23 -0.08 0.03 0.03 0.06 0.11 0.11 0.04 0.04 0.04 0.04 0.03 0.01 0.02 0.13 0.13 0.41 0.59 0.67 0.67 0.69 0.42 0.35 0.35 0.36 0.53 0.53 0.59 0.55 0.29 0.29 0.34 0.23
0.01 -0.03 -0.02 -0.02 -0.00 -0.00 0.01 0.02 0.03 0.03 0.02 0.03 0.03 0.03 0.02 0.01 0.01 -0.01 -0.01 0.00 0.00 0.01 0.02 -0.02 -0.01 -0.01 -0.00 0.00 -0.01 -0.01 -0.03 -0.06 -0.17 -0.17 -0.16 -0.11 -0.11 -0.09 -0.19 -0.17 -0.17 -0.07 -0.18 -0.32 -0.52 -0.52 -0.47 -0.52 -0.52 -0.52 -0.42 -0.38 -0.35 -0.35 -0.31 -0.37 -0.37 -0.71 -0.71 -0.60 -0.60 -0.46 -0.23 -0.25 -0.23 -0.23 -0.26 -0.19 -0.14 -0.14 -0.22 -0.22 -0.00 -0.00 0.04 0.08 0.08 0.08 0.03 0.02 0.02 0.05 0.10 0.15 0.29 0.29 0.56 0.51 0.63 0.63 0.66 0.59 0.47 0.47 0.39 0.46 0.46 0.61 0.59 0.45 0.45 0.33 0.25
-0.07 -0.06 -0.04 -0.03 -0.02 -0.02 -0.01 0.00 0.01 0.01 0.02 0.04 0.05 0.05 0.04 -0.00 -0.00 -0.04 -0.04 0.01 0.01 0.03 0.04 0.02 -0.01 -0.01 -0.00 -0.01 -0.03 -0.03 -0.04 -0.05 -0.16 -0.16 -0.16 -0.09 -0.09 -0.04 -0.11 -0.10 -0.10 -0.07 -0.07 -0.13 -0.33 -0.33 -0.29 -0.33 -0.40 -0.40 -0.39 -0.33 -0.33 -0.33 -0.31 -0.32 -0.32 -0.40 -0.66 -0.51 -0.51 -0.45 -0.38 -0.31 -0.28 -0.28 -0.33 -0.26 -0.14 -0.14 -0.19 -0.20 -0.13 -0.13 0.03 0.06 0.06 0.07 0.10 0.08 0.08 0.14 0.13 0.17 0.46 0.46 0.69 0.52 0.48 0.48 0.41 0.66 0.59 0.59 0.53 0.48 0.48 0.57 0.58 0.51 0.51 0.36 0.31
-0.03 -0.04 -0.03 -0.03 -0.05 -0.05 -0.04 -0.03 -0.03 -0.03 -0.02 0.00 0.05 0.05 0.03 -0.01 -0.01 -0.01 -0.01 0.01 0.01 0.04 0.05 0.05 0.02 0.02 -0.01 -0.01 -0.03 -0.03 -0.04 -0.07 -0.11 -0.11 -0.14 -0.06 -0.06 0.01 0.04 -0.08 -0.08 -0.11 -0.10 -0.01 -0.15 -0.15 -0.13 -0.19 -0.28 -0.28 -0.36 -0.31 -0.34 -0.34 -0.35 -0.32 -0.32 -0.32 -0.41 -0.39 -0.39 -0.41 -0.41 -0.42 -0.53 -0.53 -0.40 -0.25 -0.17 -0.17 -0.17 -0.17 -0.16 -0.16 -0.06 0.04 0.04 0.07 0.08 0.11 0.11 0.17 0.21 0.27 0.35 0.35 0.57 0.53 0.42 0.42 0.42 0.51 0.66 0.66 0.79 0.64 0.64 0.52 0.58 0.51 0.51 0.35 0.30
-0.01 -0.01 -0.01 -0.03 -0.09 -0.09 -0.08 -0.08 -0.08 -0.08 -0.07 -0.04 0.02 0.02 0.03 -0.00 -0.00 0.01 0.02 0.04 0.04 0.05 0.06 0.04 0.01 0.01 -0.03 -0.03 -0.04 -0.04 -0.02 -0.07 -0.12 -0.12 -0.14 -0.04 -0.04 0.00 0.04 0.01 0.01 -0.05 -0.19 -0.21 -0.05 -0.05 -0.05 -0.07 -0.15 -0.15 -0.34 -0.32 -0.33 -0.33 -0.37 -0.29 -0.29 -0.31 -0.31 -0.12 -0.12 -0.31 -0.36 -0.42 -0.43 -0.43 -0.48 -0.33 -0.20 -0.20 -0.18 -0.17 -0.17 -0.17 -0.13 -0.05 -0.05 0.05 0.09 0.11 0.11 0.12 0.22 0.34 0.43 0.43 0.54 0.58 0.47 0.47 0.37 0.41 0.54 0.54 0.85 0.84 0.84 0.66 0.58 0.64 0.64 0.35 0.24
0.00 -0.00 -0.01 -0.02 -0.04 -0.04 -0.07 -0.08 -0.08 -0.08 -0.04 0.00 0.03 0.03 0.02 -0.02 -0.02 -0.01 0.02 0.05 0.05 0.07 0.06 0.04 -0.00 -0.00 -0.04 -0.06 -0.05 -0.05 -0.02 -0.07 -0.15 -0.15 -0.17 -0.03 -0.03 -0.00 -0.09 0.07 0.07 0.08 0.02 -0.06 0.04 0.04 -0.03 0.02 0.01 0.01 -0.29 -0.33 -0.25 -0.25 -0.28 -0.32 -0.32 -0.24 -0.15 0.03 0.03 -0.07 -0.29 -0.31 -0.31 -0.31 -0.47 -0.47 -0.32 -0.32 -0.33 -0.30 -0.16 -0.16 -0.14 -0.09 -0.09 -0.04 0.06 0.07 0.07 0.10 0.13 0.24 0.49 0.49 0.53 0.53 0.50 0.50 0.21 0.28 0.43 0.43 0.48 0.78 0.78 0.91 0.70 0.76 0.76 0.68 0.25
0.00 0.00 -0.02 -0.03 -0.02 -0.02 -0.13 -0.15 -0.11 -0.11 -0.08 0.02 0.04 0.04 0.02 -0.05 -0.05 -0.04 -0.00 0.04 0.04 0.06 0.04 0.03 0.01 0.01 -0.05 -0.09 -0.08 -0.08 -0.05 -0.06 -0.18 -0.18 -0.21 -0.13 -0.13 -0.02 -0.04 -0.07 -0.07 0.04 0.08 0.07 0.07 0.07 0.06 0.12 0.20 0.20 -0.07 -0.38 -0.41 -0.41 -0.29 -0.32 -0.32 -0.19 -0.02 0.12 0.12 0.04 -0.19 -0.26 -0.31 -0.31 -0.40 -0.50 -0.43 -0.43 -0.41 -0.32 -0.30 -0.30 -0.16 -0.13 -0.13 -0.08 -0.02 0.07 0.07 0.15 0.14 0.18 0.37 0.37 0.58 0.54 0.47 0.47 0.36 0.17 0.26 0.26 0.29 0.62 0.62 1.03 0.90 0.92 0.92 0.80 0.53
-0.00 -0.00 -0.01 -0.03 -0.04 -0.04 -0.20 -0.29 -0.20 -0.20 -0.09 0.01 0.00 0.00 -0.05 -0.04 -0.04 -0.05 -0.03 -0.01 -0.01 0.04 0.03 0.02 -0.00 -0.00 -0.05 -0.09 -0.09 -0.09 -0.05 -0.05 -0.14 -0.14 -0.22 -0.13 -0.13 -0.07 -0.06 -0.10 -0.10 -0.12 0.02 0.04 0.04 0.04 0.12 0.20 0.26 0.26 0.16 -0.20 -0.60 -0.60 -0.46 -0.36 -0.36 -0.37 0.01 0.20 0.20 0.15 0.03 -0.22 -0.28 -0.28 -0.36 -0.42 -0.47 -0.47 -0.45 -0.35 -0.31 -0.31 -0.31 -0.20 -0.20 -0.07 -0.00 0.07 0.07 0.18 0.20 0.25 0.44 0.44 0.57 0.56 0.49 0.49 0.35 0.23 0.12 0.12 0.22 0.45 0.45 0.86 1.15 1.14 1.14 0.92 0.62
-0.01 -0.01 -0.02 -0.03 -0.04 -0.04 -0.22 -0.39 -0.45 -0.45 -0.20 0.05 -0.01 -0.01 -0.01 -0.02 -0.02 -0.05 -0.04 -0.05 -0.05 -0.04 0.01 0.01 -0.03 -0.03 -0.08 -0.08 -0.09 -0.09 -0.05 -0.02 -0.12 -0.12 -0.19 -0.22 -0.22 -0.12 -0.08 -0.13 -0.13 -0.11 -0.07 -0.06 0.04 0.04 0.14 0.26 0.30 0.30 0.24 0.12 -0.17 -0.17 -0.61 -0.48 -0.48 -0.26 -0.05 0.23 0.23 0.28 0.12 -0.02 -0.22 -0.22 -0.30 -0.37 -0.41 -0.41 -0.42 -0.38 -0.33 -0.33 -0.33 -0.37 -0.37 -0.05 0.06 0.06 0.06 0.08 0.21 0.39 0.55 0.55 0.62 0.66 0.53 0.53 0.37 0.28 0.16 0.16 0.24 0.40 0.40 0.69 1.06 1.23 1.23 1.31 0.73
-0.02 -0.02 -0.06 -0.05 -0.04 -0.04 -0.09 -0.35 -0.53 -0.53 -0.49 -0.00 0.01 0.01 -0.01 -0.02 -0.02 -0.07 -0.05 -0.05 -0.05 -0.06 -0.07 -0.07 -0.09 -0.09 -0.14 -0.10 -0.08 -0.08 -0.06 -0.04 -0.14 -0.14 -0.17 -0.19 -0.19 -0.07 -0.07 -0.13 -0.13 -0.13 -0.06 0.00 0.14 0.14 0.26 0.31 0.38 0.38 0.28 0.19 0.03 0.03 -0.19 -0.50 -0.50 -0.27 -0.03 0.17 0.17 0.35 0.15 0.05 -0.07 -0.07 -0.26 -0.33 -0.39 -0.39 -0.40 -0.35 -0.34 -0.34 -0.34 -0.36 -0.36 -0.30 0.09 0.07 0.07 0.10 0.25 0.45 0.59 0.59 0.56 0.60 0.67 0.67 0.54 0.29 0.23 0.23 0.29 0.33 0.33 0.42 0.89 1.13 1.13 1.34 1.21